This demonstration page uses our WeatherBlox Daily Observations layout. Learn more.

Left ArrowRight Arrow

44.89941, -97.11507

Hourly Observations for August 17, 2016

Temp ( °F °C ) Dew Point ( °F °C ) Humidity (%) Winds ( mph kmh ) Pressure ( in mb ) Visibility ( mi km ) Precip ( " mm )
12:53 am 00:53 Clear 65 18.3 60 15.6 84 84 Calm 30.04 1017 10 16 0.00 0.00
1:53 am 01:53 Clear 63 17.2 59 15 87 87 Calm 30.04 1017 10 16 0.00 0.00
2:53 am 02:53 Clear 61 16.1 58 14.4 90 90 Calm 30.03 1017 10 16 0.00 0.00
3:53 am 03:53 Clear 60 15.6 57 13.9 90 90 NNW 3 6 30.04 1017 10 16 0.00 0.00
4:53 am 04:53 Clear 60 15.6 58 14.4 93 93 Calm 30.04 1017 10 16 0.00 0.00
5:53 am 05:53 Clear 59 15 57 13.9 93 93 Calm 30.05 1018 10 16 0.00 0.00
6:53 am 06:53 Sunny 60 15.6 57 13.9 90 90 Calm 30.05 1018 10 16 0.00 0.00
7:53 am 07:53 Sunny 64 17.8 60 15.6 87 87 Calm 30.06 1018 10 16 0.00 0.00
8:53 am 08:53 Sunny 69 20.6 62 16.7 78 78 NE 3 6 30.06 1018 10 16 0.00 0.00
9:53 am 09:53 Sunny 76 24.4 62 16.7 62 62 Calm 30.06 1018 10 16 0.00 0.00
10:53 am 10:53 Sunny 81 27.2 61 16.1 51 51 VRB 3 6 30.06 1018 10 16 0.00 0.00
11:53 am 11:53 Sunny 81 27.2 59 15 47 47 Calm 30.06 1018 10 16 0.00 0.00
12:53 pm 12:53 Mostly Sunny 83 28.3 60 15.6 46 46 VRB 3 6 30.05 1018 10 16 0.00 0.00
1:53 pm 13:53 Sunny 83 28.3 59 15 44 44 ESE 5 7 30.04 1017 10 16 0.00 0.00
2:53 pm 14:53 Sunny 83 28.3 60 15.6 46 46 SSE 10 17 30.03 1017 10 16 0.00 0.00
3:53 pm 15:53 Partly Cloudy 84 28.9 60 15.6 44 44 SSE 8 13 30.02 1017 10 16 0.00 0.00
4:53 pm 16:53 Partly Cloudy 82 27.8 60 15.6 47 47 E 6 9 30.02 1017 10 16 0.00 0.00
5:53 pm 17:53 Mostly Cloudy 83 28.3 61 16.1 48 48 S 9 15 30.02 1017 10 16 0.00 0.00
6:53 pm 18:53 Sunny 81 27.2 60 15.6 49 49 SSE 10 17 30.01 1016 10 16 0.00 0.00
7:53 pm 19:53 Sunny 79 26.1 61 16.1 54 54 SE 6 9 30.00 1016 10 16 0.00 0.00
8:53 pm 20:53 Clear 76 24.4 62 16.7 62 62 SE 6 9 30.00 1016 10 16 0.00 0.00
9:53 pm 21:53 Clear 74 23.3 62 16.7 67 67 SE 6 9 30.01 1016 10 16 0.00 0.00
10:53 pm 22:53 Clear 72 22.2 63 17.2 73 73 SE 6 9 29.99 1016 10 16 0.00 0.00
11:53 pm 23:53 Clear 70 21.1 63 17.2 79 79 ESE 6 9 29.99 1016 10 16 0.00 0.00

Powered by AerisWeather